Weather History for Fort Drum, NY

Change the Weather History Date:

Saturday, February 15, 2014

  Actual Average Record
Temperature  
Mean Temperature 24 °F -  
Max Temperature 30 °F 27 °F 46 °F (2006)
Min Temperature 16 °F 9 °F -20 °F (2003)
Degree Days  
Heating Degree Days 42    
Moisture  
Dew Point 20 °F    
Average Humidity 85    
Maximum Humidity 100    
Minimum Humidity 62    
Precipitation  
Precipitation 0.01 in - - ()
Sea Level Pressure  
Sea Level Pressure 29.79 in    
Wind  
Wind Speed 5 mph (NW)    
Max Wind Speed 13 mph    
Max Gust Speed -    
Visibility 7 miles    
Events Snow    
Averages and records for this station are not official NWS values.
T = Trace of Precipitation, MM = Missing Value Source: NWS Daily Summary

Daily Weather History Graph

Daily Weather History Graph

Search for Another Location

Airport:

Trip Planner

Search our weather history database for the weather conditions in past years. The results will help you decide how hot, cold, wet, or windy it might be!

Date:

Astronomy

Feb. 15, 2014 Rise Set
Actual Time 7:02 AM EST 5:32 PM EST
Civil Twilight 6:32 AM EST 6:02 PM EST
Nautical Twilight 5:58 AM EST 6:36 PM EST
Astronomical Twilight 5:25 AM EST 7:09 PM EST
Moon 6:34 PM EST (2/15) 6:56 AM EST (2/15)
Length of Visible Light 11h 29m
Length of Day
10h 30m
Full, 100% of the Moon is Illuminated
Feb 15
Full
Feb 22
Last Quarter
Mar 1
New
Mar 8
First Quarter
Mar 16
Full

Hourly Weather History & Observations

Time (EST) Temp. Windchill Dew Point Humidity Pressure Visibility Wind Dir Wind Speed Gust Speed Precip Events Conditions
12:58 AM 25.0 °F 17.1 °F 21.7 °F 87% 29.72 in 3.0 mi West 6.9 mph - 0.00 in Snow Light Snow
1:58 AM 24.6 °F 15.8 °F 22.8 °F 93% 29.73 in 4.0 mi West 8.1 mph - 0.00 in Snow Light Snow
2:33 AM 24.8 °F 16.1 °F 23.0 °F 93% 29.71 in 3.0 mi West 8.1 mph - N/A Snow Light Snow
2:58 AM 24.6 °F 20.3 °F 23.0 °F 94% 29.74 in 3.0 mi SW 3.5 mph - 0.00 in Snow Light Snow
3:58 AM 24.8 °F - 23.9 °F 96% 29.75 in 5.0 mi WSW 2.3 mph - 0.00 in Snow Light Snow
4:58 AM 24.6 °F - 23.9 °F 97% 29.75 in 5.0 mi Calm Calm - 0.01 in Snow Light Snow
5:58 AM 23.7 °F - 23.4 °F 99% 29.76 in 7.0 mi Calm Calm - 0.00 in Snow Light Snow
6:43 AM 23.0 °F - 23.0 °F 100% 29.73 in 5.0 mi Calm Calm - N/A Snow Light Snow
6:53 AM 23.0 °F - 23.0 °F 100% 29.73 in 5.0 mi East 1.2 mph - N/A Snow Light Snow
6:58 AM 23.4 °F - 23.0 °F 99% 29.76 in 5.0 mi East 2.3 mph - 0.00 in Snow Light Snow
7:02 AM 23.0 °F - 23.0 °F 100% 29.73 in 5.0 mi ENE 2.3 mph - N/A   Overcast
7:27 AM 23.0 °F - 23.0 °F 100% 29.74 in 5.0 mi NNE 1.2 mph - N/A   Overcast
7:52 AM 23.0 °F - 23.0 °F 100% 29.75 in 4.0 mi NE 2.3 mph - N/A   Overcast
7:55 AM 23.0 °F - 23.0 °F 100% 29.75 in 4.0 mi NE 1.2 mph - N/A   Overcast
7:58 AM 23.4 °F - 23.2 °F 99% 29.78 in 4.0 mi NNE 2.3 mph - 0.00 in   Overcast
8:08 AM 23.0 °F - 23.0 °F 100% 29.75 in 3.0 mi North 2.3 mph - N/A Snow Light Snow
8:13 AM 23.0 °F - 23.0 °F 100% 29.75 in 3.0 mi NNE 2.3 mph - N/A Snow Light Snow
8:18 AM 23.0 °F - 23.0 °F 100% 29.75 in 2.5 mi NE 2.3 mph - N/A Snow Light Snow
8:28 AM 23.0 °F - 23.0 °F 100% 29.75 in 2.5 mi ENE 2.3 mph - N/A Snow Light Snow
8:33 AM 23.0 °F - 23.0 °F 100% 29.75 in 1.8 mi ENE 2.3 mph - N/A Snow Light Snow
8:48 AM 24.8 °F - 23.0 °F 93% 29.76 in 1.5 mi Calm Calm - N/A Snow Light Snow
8:58 AM 24.1 °F - 23.9 °F 99% 29.79 in 1.5 mi NE 1.2 mph - 0.00 in Snow Light Snow
9:08 AM 24.8 °F - 24.8 °F 100% 29.76 in 1.5 mi ENE 2.3 mph - N/A Snow Light Snow
9:13 AM 24.8 °F - 24.8 °F 100% 29.76 in 1.8 mi NE 2.3 mph - N/A Snow Light Snow
9:18 AM 24.8 °F - 24.8 °F 100% 29.76 in 2.0 mi NE 2.3 mph - N/A Snow Light Snow
9:23 AM 24.8 °F - 24.8 °F 100% 29.76 in 2.0 mi ENE 2.3 mph - N/A Snow Light Snow
9:43 AM 24.8 °F - 24.8 °F 100% 29.76 in 2.5 mi NE 2.3 mph - N/A Snow Light Snow
9:53 AM 24.8 °F - 24.8 °F 100% 29.77 in 4.0 mi ENE 2.3 mph - N/A Snow Light Snow
9:58 AM 24.8 °F - 24.8 °F 100% 29.80 in 4.0 mi East 2.3 mph - 0.00 in Snow Light Snow
10:03 AM 24.8 °F - 24.8 °F 100% 29.77 in 5.0 mi ENE 2.3 mph - N/A Snow Light Snow
10:53 AM 26.6 °F 20.0 °F 24.8 °F 93% 29.78 in 2.5 mi WNW 5.8 mph - N/A Snow Light Snow
10:58 AM 26.6 °F 21.2 °F 24.8 °F 93% 29.81 in 2.5 mi WNW 4.6 mph - 0.00 in Snow Light Snow
11:03 AM 26.6 °F 22.6 °F 24.8 °F 93% 29.78 in 2.0 mi WNW 3.5 mph - N/A Snow Light Snow
11:08 AM 26.6 °F 21.2 °F 24.8 °F 93% 29.78 in 1.8 mi WNW 4.6 mph - N/A Snow Light Snow
11:23 AM 26.6 °F 21.2 °F 24.8 °F 93% 29.78 in 2.0 mi WNW 4.6 mph - N/A Snow Light Snow
11:28 AM 26.6 °F 19.1 °F 24.8 °F 93% 29.78 in 2.5 mi West 6.9 mph - N/A Snow Light Snow
11:33 AM 26.6 °F 19.1 °F 24.8 °F 93% 29.78 in 3.0 mi WNW 6.9 mph - N/A Snow Light Snow
11:58 AM 28.4 °F 21.2 °F 23.0 °F 80% 29.81 in 5.0 mi West 6.9 mph - 0.00 in Snow Light Snow
12:03 PM 28.4 °F 22.2 °F 23.0 °F 80% 29.78 in 5.0 mi WSW 5.8 mph - N/A Snow Light Snow
12:14 PM 28.4 °F 22.2 °F 21.2 °F 74% 29.78 in 10.0 mi WSW 5.8 mph - N/A   Overcast
12:24 PM 28.4 °F 21.2 °F 21.2 °F 74% 29.78 in 10.0 mi WSW 6.9 mph - N/A   Overcast
12:58 PM 29.1 °F 23.0 °F 19.6 °F 68% 29.80 in 10.0 mi Variable 5.8 mph - 0.00 in   Overcast
1:03 PM 28.4 °F 19.1 °F 19.4 °F 69% 29.77 in 10.0 mi WNW 10.4 mph - N/A   Overcast
1:11 PM 30.2 °F 21.3 °F 19.4 °F 64% 29.77 in 10.0 mi West 10.4 mph - N/A   Overcast
1:12 PM 30.2 °F 21.9 °F 19.4 °F 64% 29.77 in 10.0 mi West 9.2 mph - N/A   Overcast
1:22 PM 30.2 °F 23.4 °F 19.4 °F 64% 29.77 in 10.0 mi West 6.9 mph - N/A   Overcast
1:32 PM 28.4 °F 19.7 °F 19.4 °F 69% 29.77 in 10.0 mi West 9.2 mph - N/A   Overcast
1:58 PM 28.4 °F 19.7 °F 19.2 °F 69% 29.80 in 10.0 mi WNW 9.2 mph - 0.00 in   Overcast
2:18 PM 28.4 °F 19.7 °F 17.6 °F 64% 29.76 in 10.0 mi WNW 9.2 mph - N/A   Overcast
2:58 PM 28.2 °F 20.2 °F 16.5 °F 62% 29.80 in 10.0 mi West 8.1 mph - N/A   Overcast
3:53 PM 26.6 °F 19.1 °F 15.8 °F 64% 29.78 in 10.0 mi West 6.9 mph - N/A   Overcast
3:58 PM 26.6 °F 19.1 °F 16.7 °F 66% 29.81 in 10.0 mi West 6.9 mph - N/A   Overcast
4:18 PM 26.6 °F 18.2 °F 15.8 °F 64% 29.78 in 10.0 mi West 8.1 mph - N/A   Overcast
4:48 PM 24.8 °F 17.9 °F 15.8 °F 69% 29.79 in 10.0 mi West 5.8 mph - N/A   Overcast
4:58 PM 25.2 °F 15.7 °F 16.5 °F 70% 29.83 in 10.0 mi WNW 9.2 mph - N/A   Overcast
5:43 PM 24.8 °F 20.5 °F 15.8 °F 69% 29.81 in 10.0 mi West 3.5 mph - N/A   Overcast
5:58 PM 23.9 °F 19.5 °F 15.3 °F 70% 29.86 in 10.0 mi West 3.5 mph - N/A   Overcast
6:58 PM 22.6 °F 16.5 °F 14.9 °F 72% 29.86 in 10.0 mi West 4.6 mph - N/A   Overcast
7:28 PM 21.2 °F 14.9 °F 14.0 °F 74% 29.83 in 10.0 mi West 4.6 mph - N/A   Overcast
7:38 PM 21.2 °F 14.9 °F 15.8 °F 80% 29.83 in 10.0 mi West 4.6 mph - N/A   Overcast
7:58 PM 21.4 °F 16.6 °F 15.6 °F 78% 29.86 in 10.0 mi West 3.5 mph - N/A   Overcast
8:01 PM 21.2 °F 16.4 °F 15.8 °F 80% 29.82 in 10.0 mi West 3.5 mph - N/A   Overcast
8:11 PM 21.2 °F 16.4 °F 15.8 °F 80% 29.83 in 10.0 mi West 3.5 mph - N/A   Overcast
8:29 PM 21.2 °F 16.4 °F 15.8 °F 80% 29.83 in 10.0 mi West 3.5 mph - N/A   Overcast
8:47 PM 19.4 °F 12.8 °F 15.8 °F 86% 29.83 in 10.0 mi NW 4.6 mph - N/A Snow Light Snow
8:52 PM 21.2 °F 16.4 °F 15.8 °F 80% 29.83 in 10.0 mi WNW 3.5 mph - N/A Snow Light Snow
8:57 PM 21.2 °F 14.9 °F 15.8 °F 80% 29.83 in 10.0 mi NW 4.6 mph - N/A Snow Light Snow
8:58 PM 20.7 °F 14.2 °F 16.5 °F 84% 29.86 in 10.0 mi WNW 4.6 mph - 0.00 in Snow Light Snow
9:08 PM 21.2 °F 13.6 °F 15.8 °F 80% 29.83 in 10.0 mi WNW 5.8 mph - N/A Snow Light Snow
9:13 PM 21.2 °F 13.6 °F 17.6 °F 86% 29.83 in 10.0 mi WNW 5.8 mph - N/A Snow Light Snow
9:33 PM 19.4 °F 11.5 °F 17.6 °F 93% 29.83 in 9.0 mi NW 5.8 mph - N/A Snow Light Snow
9:38 PM 19.4 °F 10.4 °F 17.6 °F 93% 29.82 in 9.0 mi NW 6.9 mph - N/A Snow Light Snow
9:53 PM 19.4 °F 7.9 °F 15.8 °F 86% 29.83 in 6.0 mi North 10.4 mph - N/A Snow Light Snow
9:58 PM 19.6 °F 8.9 °F 14.9 °F 82% 29.86 in 5.0 mi North 9.2 mph - 0.00 in Snow Light Snow
10:25 PM 17.6 °F 7.3 °F 10.4 °F 73% 29.84 in 10.0 mi North 8.1 mph - N/A   Overcast
10:35 PM 17.6 °F 5.7 °F 10.4 °F 73% 29.84 in 10.0 mi North 10.4 mph - N/A   Overcast
10:58 PM 17.6 °F 5.7 °F 8.6 °F 68% 29.88 in 10.0 mi North 10.4 mph - 0.00 in   Overcast
11:58 PM 16.2 °F 2.5 °F 7.5 °F 69% 29.88 in 10.0 mi North 12.7 mph - N/A   Overcast